| time (UTC) | temp F | wind direction | speed MPH | gust MPH | rain 1hr in | rain 24hr in | rain mn in | humidity % | barometer mb |
| 20260504050629 | 49 | 145 | 0.0 | 0.0 | 0.00 | 0.00 | 0.00 | 47 | 1011.2 |
| 20260504045628 | 50 | 145 | 0.0 | 0.0 | 0.00 | 0.00 | 0.00 | 53 | 1011.3 |
| 20260504044628 | 51 | 145 | 0.0 | 0.0 | 0.00 | 0.00 | 0.00 | 51 | 1011.3 |
| 20260504043631 | 51 | 119 | 0.0 | 0.0 | 0.00 | 0.00 | 0.00 | 54 | 1011.3 |
| 20260504042631 | 51 | 238 | 0.0 | 0.0 | 0.00 | 0.00 | 0.00 | 38 | 1011.3 |
| 20260504041628 | 52 | 274 | 0.0 | 0.0 | 0.00 | 0.00 | 0.00 | 35 | 1011.3 |
| 20260504040647 | 51 | 284 | 0.0 | 0.0 | 0.00 | 0.00 | 0.00 | 35 | 1011.4 |
| 20260504035628 | 52 | 279 | 0.0 | 0.0 | 0.00 | 0.00 | 0.00 | 36 | 1011.3 |
| 20260504034649 | 52 | 273 | 0.0 | 0.0 | 0.00 | 0.00 | 0.00 | 36 | 1011.4 |
| 20260504033626 | 52 | 278 | 0.0 | 0.0 | 0.00 | 0.00 | 0.00 | 38 | 1011.4 |
| 20260504032624 | 52 | 275 | 0.0 | 0.0 | 0.00 | 0.00 | 0.00 | 37 | 1011.3 |
| 20260504031641 | 53 | 264 | 0.0 | 0.0 | 0.00 | 0.00 | 0.00 | 36 | 1011.2 |
| 20260504030617 | 56 | 246 | 0.0 | 0.0 | 0.00 | 0.00 | 0.00 | 35 | 1011.3 |
| 20260504025622 | 57 | 297 | 0.0 | 0.0 | 0.00 | 0.00 | 0.00 | 43 | 1011.2 |
| 20260504024618 | 58 | 242 | 0.0 | 0.0 | 0.00 | 0.00 | 0.00 | 43 | 1011.3 |
| 20260504023637 | 59 | 241 | 0.0 | 0.0 | 0.00 | 0.00 | 0.00 | 44 | 1011.1 |
| 20260504022634 | 58 | 242 | 0.0 | 0.0 | 0.00 | 0.00 | 0.00 | 35 | 1011.1 |
| 20260504021615 | 58 | 284 | 0.0 | 0.0 | 0.00 | 0.00 | 0.00 | 27 | 1010.8 |
| 20260504020619 | 59 | 271 | 0.0 | 0.0 | 0.00 | 0.00 | 0.00 | 27 | 1010.9 |
| 20260504015616 | 62 | 257 | 0.0 | 1.0 | 0.00 | 0.00 | 0.00 | 24 | 1010.9 |
| 20260504014635 | 63 | 238 | 0.0 | 2.0 | 0.00 | 0.00 | 0.00 | 23 | 1010.9 |
| 20260504013633 | 63 | 244 | 0.0 | 0.0 | 0.00 | 0.00 | 0.00 | 24 | 1011.0 |
| 20260504012631 | 64 | 250 | 0.0 | 2.0 | 0.00 | 0.00 | 0.00 | 24 | 1011.1 |
| 20260504011633 | 65 | 234 | 0.0 | 7.0 | 0.00 | 0.00 | 0.00 | 24 | 1011.1 |
| 20260504010631 | 65 | 242 | 0.0 | 0.0 | 0.00 | 0.00 | 0.00 | 24 | 1011.2 |
| 20260504005632 | 65 | 246 | 0.0 | 11.0 | 0.00 | 0.00 | 0.00 | 24 | 1011.3 |
| 20260504004630 | 66 | 233 | 0.0 | 8.0 | 0.00 | 0.00 | 0.00 | 24 | 1011.3 |
| 20260504003628 | 66 | 243 | 0.0 | 8.0 | 0.00 | 0.00 | 0.00 | 22 | 1011.3 |
| 20260504002631 | 66 | 240 | 1.0 | 7.0 | 0.00 | 0.00 | 0.00 | 22 | 1011.3 |
| 20260504001631 | 66 | 263 | 2.0 | 6.0 | 0.00 | 0.00 | 0.00 | 21 | 1011.5 |
| 20260504000626 | 66 | 263 | 3.0 | 12.0 | 0.00 | 0.00 | 0.00 | 22 | 1011.5 |
| 20260503235647 | 66 | 229 | 3.0 | 12.0 | 0.00 | 0.00 | 0.00 | 20 | 1011.5 |
| 20260503234626 | 66 | 232 | 4.0 | 10.0 | 0.00 | 0.00 | 0.00 | 22 | 1011.4 |
| 20260503233627 | 67 | 235 | 2.0 | 16.0 | 0.00 | 0.00 | 0.00 | 20 | 1011.6 |
| 20260503232627 | 67 | 236 | 4.0 | 16.0 | 0.00 | 0.00 | 0.00 | 19 | 1011.6 |
| 20260503231626 | 67 | 231 | 2.0 | 9.0 | 0.00 | 0.00 | 0.00 | 18 | 1011.7 |
| 20260503230645 | 67 | 287 | 0.0 | 9.0 | 0.00 | 0.00 | 0.00 | 20 | 1011.7 |
| 20260503225626 | 67 | 252 | 2.0 | 11.0 | 0.00 | 0.00 | 0.00 | 17 | 1011.7 |
| 20260503224629 | 67 | 246 | 3.0 | 10.0 | 0.00 | 0.00 | 0.00 | 20 | 1011.9 |
| 20260503223630 | 68 | 244 | 3.0 | 12.0 | 0.00 | 0.00 | 0.00 | 22 | 1011.9 |
| 20260503222630 | 67 | 254 | 3.0 | 13.0 | 0.00 | 0.00 | 0.00 | 19 | 1012.0 |
| 20260503221629 | 67 | 244 | 3.0 | 11.0 | 0.00 | 0.00 | 0.00 | 20 | 1012.2 |
| 20260503220631 | 67 | 296 | 2.0 | 18.0 | 0.00 | 0.00 | 0.00 | 21 | 1012.4 |
| 20260503215650 | 67 | 236 | 2.0 | 16.0 | 0.00 | 0.00 | 0.00 | 20 | 1012.5 |
| 20260503214633 | 67 | 293 | 1.0 | 11.0 | 0.00 | 0.00 | 0.00 | 26 | 1012.7 |
| 20260503213631 | 67 | 255 | 2.0 | 11.0 | 0.00 | 0.00 | 0.00 | 18 | 1012.8 |
| 20260503212631 | 63 | 98 | 0.0 | 0.0 | 0.00 | 0.00 | 0.00 | 25 | 1012.9 |
| 20260503211631 | 60 | 49 | 0.0 | 0.0 | 0.00 | 0.00 | 0.00 | 33 | 1013.1 |
| 20260503210654 | 58 | 110 | 0.0 | 0.0 | 0.00 | 0.00 | 0.00 | 28 | 1013.2 |
| 20260503205655 | 59 | 109 | 0.0 | 0.0 | 0.00 | 0.00 | 0.00 | 33 | 1013.4 |
| 20260503204629 | 57 | 49 | 0.0 | 0.0 | 0.00 | 0.00 | 0.00 | 36 | 1013.4 |
| 20260503203629 | 56 | 99 | 0.0 | 0.0 | 0.00 | 0.00 | 0.00 | 53 | 1013.4 |
| 20260503202631 | 55 | 58 | 0.0 | 0.0 | 0.00 | 0.00 | 0.00 | 52 | 1013.5 |
| 20260503201617 | 54 | 44 | 0.0 | 0.0 | 0.00 | 0.00 | 0.00 | 55 | 1013.7 |
| 20260503200616 | 54 | 57 | 0.0 | 0.0 | 0.00 | 0.00 | 0.00 | 49 | 1013.8 |
| 20260503195616 | 53 | 86 | 0.0 | 0.0 | 0.00 | 0.00 | 0.00 | 59 | 1014.0 |
| 20260503194616 | 53 | 98 | 0.0 | 0.0 | 0.00 | 0.00 | 0.00 | 59 | 1014.0 |
| 20260503193616 | 54 | 28 | 0.0 | 0.0 | 0.00 | 0.00 | 0.00 | 54 | 1014.2 |
| 20260503192639 | 53 | 26 | 0.0 | 1.0 | 0.00 | 0.00 | 0.00 | 55 | 1014.3 |
| 20260503191617 | 53 | 33 | 0.0 | 6.0 | 0.00 | 0.00 | 0.00 | 56 | 1014.3 |
| 20260503190635 | 54 | 20 | 0.0 | 0.0 | 0.00 | 0.00 | 0.00 | 53 | 1014.6 |
| 20260503185620 | 52 | 62 | 0.0 | 0.0 | 0.00 | 0.00 | 0.00 | 53 | 1014.8 |
| 20260503184619 | 50 | 62 | 0.0 | 0.0 | 0.00 | 0.00 | 0.00 | 55 | 1015.0 |
| 20260503183623 | 50 | 86 | 0.0 | 0.0 | 0.00 | 0.00 | 0.00 | 56 | 1014.8 |
| 20260503182623 | 50 | 71 | 0.0 | 0.0 | 0.00 | 0.00 | 0.00 | 57 | 1015.0 |
| 20260503181621 | 50 | 71 | 0.0 | 0.0 | 0.00 | 0.00 | 0.00 | 59 | 1015.2 |
| 20260503180637 | 49 | 57 | 0.0 | 0.0 | 0.00 | 0.00 | 0.00 | 64 | 1015.2 |
| 20260503175616 | 49 | 65 | 0.0 | 0.0 | 0.00 | 0.00 | 0.00 | 64 | 1015.4 |
| 20260503174617 | 50 | 61 | 0.0 | 0.0 | 0.00 | 0.00 | 0.00 | 64 | 1015.6 |
| 20260503173635 | 49 | 59 | 0.0 | 0.0 | 0.00 | 0.00 | 0.00 | 62 | 1015.7 |
| 20260503172634 | 48 | 59 | 0.0 | 0.0 | 0.00 | 0.00 | 0.00 | 64 | 1015.9 |
| 20260503171634 | 48 | 85 | 0.0 | 0.0 | 0.00 | 0.00 | 0.00 | 64 | 1016.1 |
| 20260503170630 | 48 | 63 | 0.0 | 0.0 | 0.00 | 0.00 | 0.00 | 62 | 1016.2 |
| 20260503150630 | 46 | 132 | 0.0 | 0.0 | 0.00 | 0.00 | 0.00 | 65 | 1017.3 |
| 20260503130633 | 38 | 244 | 0.0 | 0.0 | 0.00 | 0.00 | 0.00 | 70 | 1017.1 |
| 20260503110645 | 36 | 263 | 0.0 | 0.0 | 0.00 | 0.00 | 0.00 | 63 | 1017.1 |
| 20260503081630 | 43 | 200 | 0.0 | 0.0 | 0.00 | 0.00 | 0.00 | 41 | 1017.0 |
| 20260503080622 | 44 | 200 | 0.0 | 0.0 | 0.00 | 0.00 | 0.00 | 46 | 1017.0 |
| 20260503072619 | 43 | 198 | 0.0 | 0.0 | 0.00 | 0.00 | 0.00 | 46 | 1017.1 |
| 20260503071635 | 44 | 200 | 0.0 | 0.0 | 0.00 | 0.00 | 0.00 | 49 | 1017.1 |
| 20260503070634 | 44 | 199 | 0.0 | 0.0 | 0.00 | 0.00 | 0.00 | 47 | 1017.1 |